Regional Weather Roundup
Issued by NWS

Home | Current Version | Previous Version | Text Only | Print | Product List | Glossary Off
Versions: 1 2 3 4 5 6 7 8 9 10 11 12 13 14 15 16 17 18 19 20 21 22 23 24 25 26 27 28 29 30 31 32 33 34 35 36 37 38 39 40 41 42 43 44 45 46 47 48 49 50

000
ASUS43 KMKX 281321
RWRWI

WISCONSIN REGIONAL WEATHER ROUNDUP
NATIONAL WEATHER SERVICE MILWAUKEE/SULLIVAN WI
800 AM CDT MON JUL 28 2014

NOTE: "FAIR" INDICATES FEW OR NO CLOUDS BELOW 12,000 FEET WITH NO
SIGNIFICANT WEATHER AND/OR OBSTRUCTIONS TO VISIBILITY.

WIZ001-002-006>008-014>016-023>028-281400-
NORTHWEST WISCONSIN

CITY           SKY/WX    TMP DP  RH WIND       PRES   REMARKS
SUPERIOR ARPT  CLOUDY    61  57  87 CALM      30.17S
ASHLAND        CLOUDY    58  55  90 W6        30.15S
HAYWARD        CLOUDY    51  51 100 SW3       30.18S
SIREN          CLOUDY    58  56  92 CALM      30.19S
RICE LAKE      CLOUDY    58  56  92 CALM      30.20R
LADYSMITH      CLOUDY    57  55  90 NW5       30.18S
EAU CLAIRE     PTSUNNY   61  56  83 NW3       30.17R
MENOMONIE      CLOUDY    60  57  90 NW3       30.18S
NEW RICHMOND   CLOUDY    60  58  96 CALM      30.20R
OSCEOLA        CLOUDY    60  59  97 CALM      30.22R
$$

WIZ003>005-009-010-017-018-281400-
NORTH CENTRAL WISCONSIN

CITY           SKY/WX    TMP DP  RH WIND       PRES   REMARKS
WOODRUFF       MOSUNNY   55  52  91 CALM      30.13S
RHINELANDER    CLOUDY    54  51  90 W7        30.14R
EAGLE RIVER    CLOUDY    53  52  97 W5        30.12S
LAND O LAKES   CLOUDY    57  52  82 NW5       30.13R
PHILLIPS       PTSUNNY   52  51  93 CALM      30.16R
TOMAHAWK       CLOUDY    51  50  95 W5        30.15R
MEDFORD        MOSUNNY   55  51  87 NW6       30.16R
MERRILL        PTSUNNY   54  51  91 N5        30.14R
$$

WIZ029-030-035-036-043>047-281400-
CENTRAL WISCONSIN

CITY           SKY/WX    TMP DP  RH WIND       PRES   REMARKS
WAUSAU         SUNNY     55  50  83 NW7       30.13R
MOSINEE        SUNNY     54  52  94 N7        30.15R
MARSHFIELD     SUNNY     57  52  83 NW10      30.14S
STEVENS POINT  SUNNY     54  49  83 NW5       30.14R
WAUPACA        SUNNY     58  51  80 N6        30.12R
WAUTOMA        SUNNY     57  51  80 N9        30.13R
WISC RAPIDS    SUNNY     57  51  80 MISG      30.15R
CAMP DOUGLAS   PTSUNNY   57  55  94 NW6       30.15R
$$

WIZ011>013-019>022-031-037>040-048>050-281400-
NORTHEAST WISCONSIN

CITY           SKY/WX    TMP DP  RH WIND       PRES   REMARKS
ANTIGO         MOSUNNY   52  50  90 NW6       30.13R
STURGEON BAY   SUNNY     55  43  62 N14G22    30.09R
GREEN BAY      SUNNY     56  47  71 N15       30.10R
MANITOWOC      SUNNY     56  46  69 N16       30.06R
APPLETON       PTSUNNY   54  46  76 N13       30.11R
CLINTONVILLE   SUNNY     55  48  76 N7        30.11S
OSHKOSH        SUNNY     56  48  74 N13       30.10R
$$

WIZ032>034-041-042-053>061-281400-
SOUTHWEST WISCONSIN

CITY           SKY/WX    TMP DP  RH WIND       PRES   REMARKS
LA CROSSE      NOT AVBL
SPARTA         SUNNY     56  52  88 CALM      30.16S
VIROQUA        FAIR      56  55  94 N6        30.16R
BOSCOBEL       SUNNY     62  52  69 VRB5      30.15R
PRAIRIE DU CHI SUNNY     61  52  73 NW8       30.15R
PLATTEVILLE    FAIR      58  53  83 N9        30.15R
$$

WIZ056-057-062-063-064-067-068-281400-
SOUTH CENTRAL WISCONSIN

CITY           SKY/WX    TMP DP  RH WIND       PRES   REMARKS
BARABOO/DELLS  SUNNY     56  50  80 N7        30.13R
LONE ROCK      SUNNY     63  52  67 NW8       30.14R
WATERTOWN      SUNNY     57  49  75 N13G20    30.09R
MADISON        SUNNY     58  51  78 N10       30.11R
MIDDLETON      FAIR      59  52  76 N7        30.12R
MONROE         SUNNY     57  52  82 N10G18    30.11R
JANESVILLE     SUNNY     61  48  63 N9        30.09R
$$

WIZ051-052-058>065-066-070>072-281400-
SOUTHEAST WISCONSIN

CITY           SKY/WX    TMP DP  RH WIND       PRES   REMARKS
MILWAUKEE      MOSUNNY   57  45  64 N15G23    30.06R
WAUKESHA       NOT AVBL
MILWAUKEE/TIMM SUNNY     55  45  67 N12       30.07R
RACINE         SUNNY     58  46  64 N15G24    30.07R
BURLINGTON     SUNNY     56  49  80 N9G17     30.07R
KENOSHA        SUNNY     58  48  69 N10G22    30.06R
FOND DU LAC    SUNNY     57  47  69 N14       30.10R
SHEBOYGAN      SUNNY     56  46  69 N14       30.06R
WEST BEND      SUNNY     55  43  62 N12G17    30.07R
JUNEAU         SUNNY     55  48  76 NW13G20   30.10R
$$

LSZ147-162-281400-
LAKE SUPERIOR

STATION/POSITION TIME  TEMP    WIND        PRES    WAVE
                       AIR SEA DIR/SP/G            HT/PER
                 (UTC) (F)     (DEG/KT/KT) (MB)    (FT/S)
W MID LAKE BUOY  1250   48 44  300/  8/  8 1019.5R   0
PORT WING        1200   56     180/  5/  6 1021.0S
SAXON HARBOR     1200           CALM  /  2 1020.3S
$$

LMZ867-665-643>646-281400-
LAKE MICHIGAN

STATION/POSITION TIME  TEMP    WIND        PRES    WAVE
                       AIR SEA DIR/SP/G            HT/PER
                 (UTC) (F)     (DEG/KT/KT) (MB)    (FT/S)
N MID LAKE BUOY  1250   53 54  350/ 19/ 21 1016.5R   4/ 5
NORTHPORT PIER   1200   54     340/ 18/ 22 1017.6R
SISTER BAY       1210   55     360/ 18/ 24   N/A
KEWAUNEE LAKESHO 1300   55     330/  9/ 15 1018.6R
SHEBOYGAN LAKESH 1300   55     340/ 14/ 16 1018.2R
PORT WASHINGTON  1200   57     330/  6/ 12 1017.9
ATWATER BUOY     1300   58     350/ 17     1018.5R
MILWAUKEE LAKESH 1200   56     340/ 14/ 19   N/A
S MID LAKE BUOY  1250   57 59  340/ 21/ 27 1015.7R   7/ 7
KENOSHA   LAKESH 1300   58     360/ 16/ 21 1017.3R
$$

TC  - TEMPERATURE IN CELSIUS
VSB - VISIBILITY IN STATUTE MILES
WCI - WIND CHILL INDEX
HX  - HEAT INDEX



USA.gov is the U.S. government's official web portal to all federal, state and local government web resources and services.